| time (UTC) | temp C | wind direction | speed KPH | gust KPH | rain 1hr cm | rain 24hr cm | rain mn cm | humidity % | barometer mb |
| 20260504050547 | 10 | 297 | 0.0 | 3.2 | 0.00 | 0.00 | 0.00 | 56 | 1007.8 |
| 20260504045547 | 10 | 319 | 0.0 | 0.0 | 0.00 | 0.00 | 0.00 | 56 | 1007.9 |
| 20260504045043 | 11 | 319 | 0.0 | 0.0 | 0.00 | 0.00 | 0.00 | 56 | 1007.9 |
| 20260504044546 | 11 | 319 | 0.0 | 3.2 | 0.00 | 0.00 | 0.00 | 56 | 1007.9 |
| 20260504044041 | 11 | 319 | 0.0 | 4.8 | 0.00 | 0.00 | 0.00 | 56 | 1008.0 |
| 20260504043543 | 11 | 319 | 0.0 | 4.8 | 0.00 | 0.00 | 0.00 | 56 | 1008.0 |
| 20260504043041 | 11 | 318 | 0.0 | 3.2 | 0.00 | 0.00 | 0.00 | 56 | 1008.0 |
| 20260504042540 | 11 | 317 | 0.0 | 4.8 | 0.00 | 0.00 | 0.00 | 56 | 1008.0 |
| 20260504042039 | 11 | 317 | 0.0 | 11.3 | 0.00 | 0.00 | 0.00 | 56 | 1008.0 |
| 20260504041539 | 11 | 316 | 1.6 | 11.3 | 0.00 | 0.00 | 0.00 | 56 | 1008.0 |
| 20260504041041 | 11 | 294 | 1.6 | 12.9 | 0.00 | 0.00 | 0.00 | 56 | 1008.0 |
| 20260504040538 | 11 | 284 | 1.6 | 12.9 | 0.00 | 0.00 | 0.00 | 56 | 1008.0 |
| 20260504040044 | 11 | 186 | 3.2 | 16.1 | 0.00 | 0.00 | 0.00 | 55 | 1008.0 |
| 20260504035538 | 11 | 292 | 3.2 | 16.1 | 0.00 | 0.00 | 0.00 | 55 | 1007.9 |
| 20260504035037 | 11 | 299 | 3.2 | 12.9 | 0.00 | 0.00 | 0.00 | 55 | 1007.9 |
| 20260504034548 | 11 | 290 | 1.6 | 9.7 | 0.00 | 0.00 | 0.00 | 55 | 1007.8 |
| 20260504034040 | 11 | 299 | 0.0 | 9.7 | 0.00 | 0.00 | 0.00 | 56 | 1007.8 |
| 20260504033539 | 12 | 300 | 1.6 | 11.3 | 0.00 | 0.00 | 0.00 | 55 | 1007.9 |
| 20260504033037 | 12 | 276 | 1.6 | 8.0 | 0.00 | 0.00 | 0.00 | 55 | 1008.0 |
| 20260504032537 | 12 | 311 | 0.0 | 4.8 | 0.00 | 0.00 | 0.00 | 54 | 1007.9 |
| 20260504032040 | 12 | 311 | 0.0 | 8.0 | 0.00 | 0.00 | 0.00 | 54 | 1007.9 |
| 20260504031536 | 12 | 317 | 1.6 | 8.0 | 0.00 | 0.00 | 0.00 | 54 | 1007.9 |
| 20260504031035 | 12 | 332 | 1.6 | 14.5 | 0.00 | 0.00 | 0.00 | 54 | 1007.9 |
| 20260504030534 | 12 | 275 | 1.6 | 19.3 | 0.00 | 0.00 | 0.00 | 53 | 1007.9 |
| 20260504030034 | 12 | 315 | 3.2 | 19.3 | 0.00 | 0.00 | 0.00 | 53 | 1007.9 |
| 20260504025534 | 12 | 316 | 4.8 | 17.7 | 0.00 | 0.00 | 0.00 | 53 | 1007.9 |
| 20260504025034 | 12 | 307 | 3.2 | 17.7 | 0.00 | 0.00 | 0.00 | 54 | 1007.9 |
| 20260504024534 | 12 | 292 | 4.8 | 19.3 | 0.00 | 0.00 | 0.00 | 54 | 1008.0 |
| 20260504024034 | 12 | 307 | 4.8 | 19.3 | 0.00 | 0.00 | 0.00 | 54 | 1008.0 |
| 20260504023535 | 12 | 315 | 3.2 | 20.9 | 0.00 | 0.00 | 0.00 | 54 | 1008.0 |
| 20260504023033 | 12 | 306 | 8.0 | 20.9 | 0.00 | 0.00 | 0.00 | 54 | 1008.0 |
| 20260504022533 | 12 | 292 | 4.8 | 17.7 | 0.00 | 0.00 | 0.00 | 54 | 1008.1 |
| 20260504022035 | 12 | 25 | 4.8 | 19.3 | 0.00 | 0.00 | 0.00 | 54 | 1008.2 |
| 20260504021532 | 12 | 72 | 4.8 | 19.3 | 0.00 | 0.00 | 0.00 | 54 | 1008.3 |
| 20260504021032 | 12 | 275 | 3.2 | 17.7 | 0.00 | 0.00 | 0.00 | 54 | 1008.4 |
| 20260504020531 | 12 | 296 | 1.6 | 16.1 | 0.00 | 0.00 | 0.00 | 54 | 1008.4 |
| 20260504020031 | 12 | 296 | 3.2 | 16.1 | 0.00 | 0.00 | 0.00 | 54 | 1008.3 |
| 20260504015531 | 12 | 305 | 3.2 | 16.1 | 0.00 | 0.00 | 0.00 | 54 | 1008.3 |
| 20260504015031 | 12 | 305 | 1.6 | 16.1 | 0.00 | 0.00 | 0.00 | 54 | 1008.2 |
| 20260504014530 | 12 | 313 | 1.6 | 19.3 | 0.00 | 0.00 | 0.00 | 54 | 1008.2 |
| 20260504014030 | 12 | 261 | 1.6 | 19.3 | 0.00 | 0.00 | 0.00 | 54 | 1008.2 |
| 20260504013531 | 12 | 292 | 1.6 | 17.7 | 0.00 | 0.00 | 0.00 | 54 | 1008.4 |
| 20260504013040 | 12 | 286 | 6.4 | 20.9 | 0.00 | 0.00 | 0.00 | 54 | 1008.4 |
| 20260504012533 | 11 | 156 | 4.8 | 20.9 | 0.00 | 0.00 | 0.00 | 54 | 1008.4 |
| 20260504012030 | 11 | 298 | 3.2 | 17.7 | 0.00 | 0.00 | 0.00 | 55 | 1008.5 |
| 20260504011531 | 11 | 319 | 8.0 | 17.7 | 0.00 | 0.00 | 0.00 | 54 | 1008.6 |
| 20260504011030 | 12 | 323 | 3.2 | 14.5 | 0.00 | 0.00 | 0.00 | 55 | 1008.6 |
| 20260504010529 | 12 | 322 | 3.2 | 19.3 | 0.00 | 0.00 | 0.00 | 55 | 1008.6 |
| 20260504010029 | 12 | 290 | 3.2 | 19.3 | 0.00 | 0.00 | 0.00 | 55 | 1008.6 |
| 20260504005529 | 12 | 284 | 3.2 | 20.9 | 0.00 | 0.00 | 0.00 | 54 | 1008.6 |
| 20260504005029 | 12 | 294 | 6.4 | 22.5 | 0.00 | 0.00 | 0.00 | 54 | 1008.6 |
| 20260504004529 | 12 | 279 | 4.8 | 22.5 | 0.00 | 0.00 | 0.00 | 54 | 1008.8 |
| 20260504004028 | 12 | 300 | 6.4 | 33.8 | 0.00 | 0.00 | 0.00 | 54 | 1008.9 |
| 20260504003529 | 12 | 340 | 12.9 | 33.8 | 0.00 | 0.00 | 0.00 | 53 | 1008.8 |
| 20260504003029 | 12 | 14 | 9.7 | 19.3 | 0.00 | 0.00 | 0.00 | 52 | 1008.8 |
| 20260504002528 | 12 | 350 | 3.2 | 12.9 | 0.00 | 0.00 | 0.00 | 51 | 1008.7 |
| 20260504002028 | 12 | 263 | 4.8 | 12.9 | 0.00 | 0.00 | 0.00 | 51 | 1008.6 |
| 20260504001528 | 12 | 322 | 1.6 | 16.1 | 0.00 | 0.00 | 0.00 | 51 | 1008.5 |
| 20260504001028 | 12 | 325 | 4.8 | 25.7 | 0.00 | 0.00 | 0.00 | 51 | 1008.5 |
| 20260504000529 | 12 | 274 | 3.2 | 25.7 | 0.00 | 0.00 | 0.00 | 51 | 1008.4 |
| 20260504000027 | 12 | 311 | 4.8 | 24.1 | 0.00 | 0.00 | 0.00 | 51 | 1008.3 |
| 20260503235526 | 12 | 307 | 4.8 | 29.0 | 0.00 | 0.00 | 0.00 | 50 | 1008.3 |
| 20260503235026 | 12 | 293 | 6.4 | 29.0 | 0.00 | 0.00 | 0.00 | 50 | 1008.4 |
| 20260503234527 | 12 | 286 | 6.4 | 22.5 | 0.00 | 0.00 | 0.00 | 50 | 1008.5 |
| 20260503234027 | 12 | 292 | 6.4 | 19.3 | 0.00 | 0.00 | 0.00 | 49 | 1008.8 |
| 20260503233528 | 12 | 283 | 8.0 | 20.9 | 0.00 | 0.00 | 0.00 | 48 | 1008.6 |
| 20260503233030 | 12 | 311 | 6.4 | 24.1 | 0.00 | 0.00 | 0.00 | 49 | 1008.5 |
| 20260503232525 | 13 | 348 | 4.8 | 25.7 | 0.00 | 0.00 | 0.00 | 49 | 1008.4 |
| 20260503232025 | 13 | 313 | 8.0 | 29.0 | 0.00 | 0.00 | 0.00 | 48 | 1008.4 |
| 20260503231526 | 13 | 139 | 8.0 | 30.6 | 0.00 | 0.00 | 0.00 | 48 | 1008.4 |
| 20260503231026 | 13 | 278 | 6.4 | 30.6 | 0.00 | 0.00 | 0.00 | 47 | 1008.3 |
| 20260503230527 | 13 | 350 | 6.4 | 29.0 | 0.00 | 0.00 | 0.00 | 46 | 1008.3 |
| 20260503230025 | 13 | 257 | 6.4 | 29.0 | 0.00 | 0.00 | 0.00 | 46 | 1008.0 |
| 20260503225524 | 13 | 284 | 6.4 | 29.0 | 0.00 | 0.00 | 0.00 | 45 | 1008.2 |
| 20260503225024 | 13 | 360 | 8.0 | 25.7 | 0.00 | 0.00 | 0.00 | 43 | 1008.1 |
| 20260503224524 | 13 | 346 | 8.0 | 22.5 | 0.00 | 0.00 | 0.00 | 42 | 1008.1 |
| 20260503224026 | 13 | 217 | 8.0 | 22.5 | 0.00 | 0.00 | 0.00 | 44 | 1008.0 |
| 20260503223524 | 13 | 267 | 3.2 | 22.5 | 0.00 | 0.00 | 0.00 | 44 | 1008.0 |
| 20260503223023 | 13 | 292 | 1.6 | 22.5 | 0.00 | 0.00 | 0.00 | 45 | 1008.1 |
| 20260503222522 | 13 | 98 | 4.8 | 25.7 | 0.00 | 0.00 | 0.00 | 44 | 1008.1 |
| 20260503222022 | 13 | 311 | 3.2 | 25.7 | 0.00 | 0.00 | 0.00 | 44 | 1008.2 |
| 20260503221522 | 13 | 14 | 4.8 | 16.1 | 0.00 | 0.00 | 0.00 | 45 | 1008.0 |
| 20260503221022 | 13 | 279 | 1.6 | 14.5 | 0.00 | 0.00 | 0.00 | 44 | 1008.1 |
| 20260503220522 | 14 | 313 | 4.8 | 14.5 | 0.00 | 0.00 | 0.00 | 43 | 1008.1 |
| 20260503220022 | 14 | 261 | 4.8 | 14.5 | 0.00 | 0.00 | 0.00 | 44 | 1008.2 |
| 20260503215522 | 14 | 298 | 3.2 | 20.9 | 0.00 | 0.00 | 0.00 | 43 | 1008.2 |
| 20260503215025 | 14 | 360 | 6.4 | 20.9 | 0.00 | 0.00 | 0.00 | 42 | 1008.2 |
| 20260503214521 | 14 | 337 | 4.8 | 19.3 | 0.00 | 0.00 | 0.00 | 42 | 1008.1 |
| 20260503214022 | 15 | 338 | 8.0 | 19.3 | 0.00 | 0.00 | 0.00 | 42 | 1008.1 |
| 20260503213523 | 15 | 300 | 1.6 | 14.5 | 0.00 | 0.00 | 0.00 | 44 | 1008.1 |
| 20260503213021 | 15 | 304 | 1.6 | 14.5 | 0.00 | 0.00 | 0.00 | 42 | 1007.9 |
| 20260503212521 | 15 | 333 | 1.6 | 16.1 | 0.00 | 0.00 | 0.00 | 43 | 1008.0 |
| 20260503212021 | 15 | 360 | 3.2 | 16.1 | 0.00 | 0.00 | 0.00 | 43 | 1008.0 |
| 20260503211532 | 15 | 302 | 4.8 | 12.9 | 0.00 | 0.00 | 0.00 | 42 | 1008.1 |
| 20260503211020 | 15 | 312 | 4.8 | 12.9 | 0.00 | 0.00 | 0.00 | 41 | 1008.1 |
| 20260503210523 | 15 | 266 | 3.2 | 17.7 | 0.00 | 0.00 | 0.00 | 43 | 1008.0 |
| 20260503210020 | 15 | 159 | 8.0 | 17.7 | 0.00 | 0.00 | 0.00 | 41 | 1008.0 |
| 20260503205519 | 15 | 277 | 6.4 | 19.3 | 0.00 | 0.00 | 0.00 | 41 | 1008.1 |
| 20260503205018 | 15 | 334 | 3.2 | 19.3 | 0.00 | 0.00 | 0.00 | 42 | 1008.1 |
| 20260503204518 | 15 | 334 | 6.4 | 14.5 | 0.00 | 0.00 | 0.00 | 41 | 1008.2 |
| 20260503204016 | 15 | 263 | 4.8 | 14.5 | 0.00 | 0.00 | 0.00 | 41 | 1008.2 |
| 20260503203515 | 15 | 301 | 1.6 | 14.5 | 0.00 | 0.00 | 0.00 | 44 | 1008.4 |
| 20260503203016 | 15 | 290 | 3.2 | 12.9 | 0.00 | 0.00 | 0.00 | 44 | 1008.4 |
| 20260503202514 | 14 | 309 | 1.6 | 17.7 | 0.00 | 0.00 | 0.00 | 45 | 1008.4 |
| 20260503202012 | 14 | 297 | 3.2 | 17.7 | 0.00 | 0.00 | 0.00 | 44 | 1008.5 |
| 20260503201510 | 14 | 292 | 3.2 | 14.5 | 0.00 | 0.00 | 0.00 | 43 | 1008.6 |
| 20260503201010 | 13 | 300 | 3.2 | 16.1 | 0.00 | 0.00 | 0.00 | 42 | 1008.8 |
| 20260503200510 | 13 | 300 | 4.8 | 16.1 | 0.00 | 0.00 | 0.00 | 42 | 1008.9 |
| 20260503200009 | 13 | 333 | 1.6 | 19.3 | 0.00 | 0.00 | 0.00 | 42 | 1009.0 |
| 20260503195508 | 14 | 307 | 6.4 | 19.3 | 0.00 | 0.00 | 0.00 | 41 | 1009.0 |
| 20260503195011 | 14 | 311 | 4.8 | 14.5 | 0.00 | 0.00 | 0.00 | 44 | 1009.1 |
| 20260503194507 | 14 | 308 | 4.8 | 17.7 | 0.00 | 0.00 | 0.00 | 44 | 1009.1 |
| 20260503194006 | 13 | 303 | 3.2 | 17.7 | 0.00 | 0.00 | 0.00 | 44 | 1009.2 |
| 20260503193506 | 13 | 325 | 1.6 | 14.5 | 0.00 | 0.00 | 0.00 | 47 | 1009.3 |
| 20260503193005 | 13 | 315 | 3.2 | 14.5 | 0.00 | 0.00 | 0.00 | 43 | 1009.3 |
| 20260503192504 | 13 | 308 | 3.2 | 19.3 | 0.00 | 0.00 | 0.00 | 44 | 1009.5 |
| 20260503192004 | 13 | 293 | 8.0 | 19.3 | 0.00 | 0.00 | 0.00 | 43 | 1009.7 |
| 20260503191503 | 13 | 300 | 4.8 | 12.9 | 0.00 | 0.00 | 0.00 | 45 | 1009.8 |
| 20260503191003 | 13 | 181 | 3.2 | 19.3 | 0.00 | 0.00 | 0.00 | 44 | 1009.9 |
| 20260503190502 | 13 | 342 | 8.0 | 22.5 | 0.00 | 0.00 | 0.00 | 42 | 1009.9 |
| 20260503190001 | 13 | 327 | 8.0 | 22.5 | 0.00 | 0.00 | 0.00 | 42 | 1010.0 |
| 20260503185503 | 13 | 308 | 4.8 | 16.1 | 0.00 | 0.00 | 0.00 | 43 | 1009.9 |
| 20260503185000 | 13 | 290 | 3.2 | 19.3 | 0.00 | 0.00 | 0.00 | 43 | 1010.1 |
| 20260503184603 | 13 | 295 | 6.4 | 22.5 | 0.00 | 0.00 | 0.00 | 44 | 1010.2 |
| 20260503184059 | 13 | 292 | 4.8 | 22.5 | 0.00 | 0.00 | 0.00 | 45 | 1010.3 |
| 20260503183559 | 13 | 300 | 6.4 | 20.9 | 0.00 | 0.00 | 0.00 | 44 | 1010.4 |
| 20260503183110 | 12 | 309 | 8.0 | 20.9 | 0.00 | 0.00 | 0.00 | 43 | 1010.3 |
| 20260503182557 | 12 | 287 | 4.8 | 20.9 | 0.00 | 0.00 | 0.00 | 43 | 1010.4 |
| 20260503182057 | 12 | 304 | 4.8 | 22.5 | 0.00 | 0.00 | 0.00 | 44 | 1010.5 |
| 20260503181558 | 13 | 305 | 4.8 | 22.5 | 0.00 | 0.00 | 0.00 | 43 | 1010.6 |
| 20260503181057 | 13 | 138 | 8.0 | 22.5 | 0.00 | 0.00 | 0.00 | 44 | 1010.7 |
| 20260503180600 | 13 | 151 | 3.2 | 25.7 | 0.00 | 0.00 | 0.00 | 46 | 1010.6 |
| 20260503180100 | 13 | 299 | 4.8 | 25.7 | 0.00 | 0.00 | 0.00 | 43 | 1010.6 |
| 20260503175556 | 13 | 302 | 6.4 | 20.9 | 0.00 | 0.00 | 0.00 | 44 | 1010.6 |
| 20260503175055 | 12 | 296 | 4.8 | 20.9 | 0.00 | 0.00 | 0.00 | 44 | 1010.7 |
| 20260503174556 | 12 | 290 | 3.2 | 20.9 | 0.00 | 0.00 | 0.00 | 46 | 1010.8 |
| 20260503174057 | 13 | 316 | 3.2 | 20.9 | 0.00 | 0.00 | 0.00 | 43 | 1010.7 |
| 20260503173559 | 13 | 333 | 6.4 | 20.9 | 0.00 | 0.00 | 0.00 | 42 | 1010.8 |
| 20260503173112 | 13 | 298 | 6.4 | 17.7 | 0.00 | 0.00 | 0.00 | 46 | 1010.8 |
| 20260503172553 | 13 | 281 | 6.4 | 17.7 | 0.00 | 0.00 | 0.00 | 49 | 1010.8 |
| 20260503172056 | 13 | 290 | 6.4 | 17.7 | 0.00 | 0.00 | 0.00 | 47 | 1010.7 |
| 20260503171554 | 12 | 292 | 3.2 | 16.1 | 0.00 | 0.00 | 0.00 | 50 | 1010.7 |
| 20260503171051 | 12 | 297 | 6.4 | 20.9 | 0.00 | 0.00 | 0.00 | 47 | 1010.8 |
| 20260503170551 | 12 | 309 | 6.4 | 20.9 | 0.00 | 0.00 | 0.00 | 46 | 1010.9 |
| 20260503150530 | 11 | 271 | 1.6 | 12.9 | 0.00 | 0.00 | 0.00 | 54 | 1012.4 |
| 20260503131006 | 6 | 318 | 1.6 | 9.7 | 0.00 | 0.00 | 0.00 | 63 | 1013.2 |
| 20260503130507 | 6 | 316 | 3.2 | 9.7 | 0.00 | 0.00 | 0.00 | 63 | 1013.3 |
| 20260503110553 | 0 | 296 | 0.0 | 6.4 | 0.00 | 0.03 | 0.00 | 81 | 1013.0 |
| 20260503081540 | 1 | 291 | 0.0 | 0.0 | 0.00 | 0.03 | 0.00 | 75 | 1012.8 |
| 20260503081032 | 1 | 291 | 0.0 | 0.0 | 0.00 | 0.03 | 0.00 | 75 | 1012.8 |
| 20260503080532 | 1 | 291 | 0.0 | 0.0 | 0.00 | 0.03 | 0.00 | 75 | 1012.7 |
| 20260503072526 | 2 | 291 | 0.0 | 1.6 | 0.00 | 0.03 | 0.00 | 75 | 1012.7 |
| 20260503072024 | 2 | 291 | 0.0 | 1.6 | 0.00 | 0.03 | 0.00 | 75 | 1012.7 |
| 20260503071524 | 2 | 291 | 0.0 | 0.0 | 0.00 | 0.03 | 0.00 | 75 | 1012.7 |
| 20260503071022 | 2 | 291 | 0.0 | 3.2 | 0.00 | 0.03 | 0.00 | 75 | 1012.8 |
| 20260503070522 | 3 | 291 | 0.0 | 3.2 | 0.00 | 0.03 | 0.00 | 75 | 1012.7 |